Bedford, MA

5:53 AM EDT on July 22, 2017 (GMT -0400)
Hanscom

Weather History for KBED - November, 2014

Change the Weather History Date:

Friday, November 7, 2014

  Actual Average Record
Temperature  
Mean Temperature 41 °F -  
Max Temperature 46 °F 52 °F 73 °F (1975)
Min Temperature 35 °F 33 °F 19 °F (1967)
Degree Days  
Heating Degree Days 24    
Moisture  
Dew Point 36 °F    
Average Humidity 78    
Maximum Humidity 100    
Minimum Humidity 60    
Precipitation  
Precipitation 0.01 in - - ()
Sea Level Pressure  
Sea Level Pressure 29.57 in    
Wind  
Wind Speed 10 mph (WNW)    
Max Wind Speed 24 mph    
Max Gust Speed 33 mph    
Visibility 10 miles    
Events Rain    
Averages and records for this station are not official NWS values.
T = Trace of Precipitation, MM = Missing Value Source: NWS Daily Summary

Daily Weather History Graph

Daily Weather History Graph

Search for Another Location

Airport or City:

Trip Planner

Search our weather history database for the weather conditions in past years. The results will help you decide how hot, cold, wet, or windy it might be!

Date:

Astronomy

Nov. 07, 2014 Rise Set
Actual Time 6:26 AM EST 4:30 PM EST
Civil Twilight 5:56 AM EST 5:00 PM EST
Nautical Twilight 5:22 AM EST 5:34 PM EST
Astronomical Twilight 4:49 AM EST 6:07 PM EST
Moon 5:20 PM EST (11/7) 6:58 AM EST (11/7)
Length of Visible Light 11h 04m
Length of Day
10h 04m
Full, 99% of the Moon is Illuminated
Nov 7
Full
Nov 14
Last Quarter
Nov 22
New
Nov 29
First Quarter
Dec 6
Full

Hourly Weather History & Observations

Time (EST) Temp. Windchill Dew Point Humidity Pressure Visibility Wind Dir Wind Speed Gust Speed Precip Events Conditions
12:56 AM 46.9 °F - 46.0 °F 97% 29.56 in 3.0 mi West 8.1 mph - 0.01 in Rain Light Rain
1:56 AM 46.0 °F 41.4 °F 44.1 °F 93% 29.52 in 8.0 mi NW 9.2 mph - 0.00 in   Overcast
2:56 AM 45.0 °F 41.8 °F 43.0 °F 93% 29.52 in 10.0 mi NW 5.8 mph - N/A   Overcast
3:56 AM 44.1 °F 40.1 °F 43.0 °F 96% 29.52 in 10.0 mi NW 6.9 mph - N/A   Overcast
4:47 AM 44.1 °F 40.8 °F 42.1 °F 93% 29.48 in 7.0 mi NW 5.8 mph - N/A   Overcast
4:56 AM 43.0 °F 39.5 °F 43.0 °F 100% 29.52 in 6.0 mi WNW 5.8 mph - N/A   Overcast
5:56 AM 43.0 °F 39.5 °F 42.1 °F 97% 29.51 in 10.0 mi NW 5.8 mph - N/A   Overcast
6:56 AM 43.0 °F 38.2 °F 41.0 °F 93% 29.52 in 10.0 mi WNW 8.1 mph - N/A   Overcast
7:04 AM 43.0 °F 39.5 °F 41.0 °F 93% 29.48 in 10.0 mi West 5.8 mph - N/A   Overcast
7:52 AM 42.8 °F 37.5 °F 39.2 °F 87% 29.48 in 10.0 mi WNW 9.2 mph - N/A   Overcast
7:56 AM 43.0 °F 36.8 °F 39.9 °F 89% 29.52 in 10.0 mi WNW 11.5 mph - N/A   Overcast
8:03 AM 43.0 °F 37.2 °F 39.9 °F 89% 29.48 in 10.0 mi WNW 10.4 mph - N/A   Overcast
8:21 AM 43.0 °F 37.7 °F 39.0 °F 86% 29.48 in 10.0 mi WNW 9.2 mph - N/A   Overcast
8:56 AM 43.0 °F 37.7 °F 37.9 °F 82% 29.53 in 10.0 mi WNW 9.2 mph - N/A   Overcast
9:48 AM 44.1 °F 38.1 °F 37.9 °F 79% 29.49 in 10.0 mi WNW 11.5 mph - N/A   Overcast
9:56 AM 44.1 °F 36.8 °F 37.9 °F 79% 29.54 in 10.0 mi WNW 16.1 mph - N/A   Overcast
10:56 AM 45.0 °F 37.9 °F 37.0 °F 74% 29.53 in 10.0 mi WNW 16.1 mph 24.2 mph N/A   Overcast
11:56 AM 46.0 °F 38.8 °F 36.0 °F 68% 29.51 in 10.0 mi WNW 18.4 mph 28.8 mph N/A   Overcast
12:04 PM 46.0 °F 39.0 °F 35.1 °F 66% 29.47 in 10.0 mi WNW 17.3 mph 28.8 mph N/A   Overcast
12:56 PM 46.0 °F 40.6 °F 35.1 °F 66% 29.51 in 10.0 mi WNW 11.5 mph 24.2 mph N/A   Overcast
1:56 PM 46.0 °F 38.8 °F 33.1 °F 61% 29.52 in 10.0 mi WNW 18.4 mph 28.8 mph N/A   Mostly Cloudy
2:56 PM 45.0 °F 36.6 °F 32.0 °F 60% 29.55 in 10.0 mi WNW 21.9 mph 28.8 mph N/A   Mostly Cloudy
3:56 PM 43.0 °F 33.5 °F 30.0 °F 60% 29.58 in 10.0 mi NW 24.2 mph 33.4 mph N/A   Overcast
4:56 PM 42.1 °F 33.9 °F 30.9 °F 65% 29.62 in 10.0 mi WNW 17.3 mph 25.3 mph N/A   Overcast
5:56 PM 41.0 °F 33.9 °F 30.0 °F 65% 29.67 in 10.0 mi WNW 12.7 mph 24.2 mph N/A   Overcast
6:56 PM 39.9 °F 31.8 °F 28.0 °F 63% 29.71 in 10.0 mi NW 15.0 mph 23.0 mph N/A   Overcast
7:56 PM 39.0 °F 29.9 °F 28.9 °F 67% 29.74 in 10.0 mi NW 17.3 mph 21.9 mph N/A   Overcast
8:56 PM 37.9 °F 30.5 °F 27.0 °F 65% 29.77 in 10.0 mi NW 11.5 mph 21.9 mph N/A   Partly Cloudy
9:56 PM 37.9 °F 30.9 °F 25.0 °F 60% 29.79 in 10.0 mi WNW 10.4 mph - N/A   Mostly Cloudy
10:56 PM 36.0 °F 29.6 °F 24.1 °F 62% 29.81 in 10.0 mi WNW 8.1 mph - N/A   Clear
11:56 PM 35.1 °F 28.6 °F 24.1 °F 64% 29.83 in 10.0 mi WNW 8.1 mph - N/A   Mostly Cloudy